Flag for San Marino Weather past 2 weeks in San Marino, San Marino

Now
81 °F

Sunny.


Feels Like: 83 °F
Forecast: 62 / 82 °F
Wind: No wind

Location: Rimini Airport

Current Time: Aug 30, 2015 at 10:17:56 AM

Latest Report: Aug 30, 2015 at 9:45 AM


Visibility: 10 mi

Pressure: 30.12 "Hg (27.92 "Hg at 666m altitude)

Humidity: 66%

Dew point: 68 °F

Location of San MarinoLocation

Historic Weather in San Marino — Graph

°F

San Marino temperature yesterday

Maximum temperature yesterday: 84 °F (at 12:45 PM)
Minimum temperature yesterday: 70 °F (at 4:45 AM)
Average temperature yesterday: 77 °F

Past Weeks' High & Low Weather Summary

 TemperatureHumidityPressure
High88 °F (Aug 15, 11:15 AM)89% (Aug 16, 6:15 AM)30.18 "Hg (Aug 16, 6:15 AM)
Low63 °F (Aug 23, 4:15 AM)38% (Aug 17, 3:15 PM)29.71 "Hg (Aug 15, 6:15 PM)
Average76 °F73%29.96 "Hg
* Reported Aug 15 8:15 AM — Aug 30 8:45 AM, San Marino, Weather by CustomWeather, © 2015

Note: Actual official high and low records may vary slightly from our data, if they occured in-between our weather recording intervals... More about our weather records

Advertising

San Marino weather history for previous 24 hours

 ConditionsComfort  
Time TempWeatherWind HumidityBarometerVisibility
8:45 AM
Sun, Aug 30
79 °FSunny.No wind65%30.12 "Hg10 mi
8:15 AM73 °FSunny.No wind78%30.12 "Hg10 mi
7:45 AM72 °FSunny.No wind83%30.12 "Hg10 mi
7:15 AM70 °FClear.No wind83%30.12 "Hg10 mi
6:45 AM70 °FClear.1 mph83%30.12 "Hg10 mi
5:45 AM72 °FClear.2 mph78%30.12 "Hg10 mi
5:15 AM72 °FClear.No wind83%30.12 "Hg10 mi
4:45 AM72 °FClear.No wind83%30.12 "Hg10 mi
4:15 AM72 °FClear.No wind78%30.12 "Hg10 mi
3:45 AM72 °FClear.No wind78%30.12 "Hg10 mi
3:15 AM72 °FClear.No wind78%30.12 "Hg10 mi
2:45 AM72 °FClear.No wind83%30.12 "Hg10 mi
2:15 AM72 °FClear.2 mph83%30.12 "Hg10 mi
1:15 AM73 °FClear.1 mph83%30.12 "Hg10 mi
12:45 AM73 °FClear.3 mph83%30.12 "Hg10 mi
12:15 AM75 °FClear.No wind78%30.12 "Hg10 mi
11:45 PM
Sat, Aug 29
75 °FClear.No wind78%30.12 "Hg10 mi
10:45 PM77 °FClear.2 mph74%30.12 "Hg10 mi
10:15 PM77 °FClear.No wind74%30.12 "Hg10 mi
9:45 PM77 °FClear.3 mph74%30.12 "Hg10 mi
9:15 PM79 °FClear.1 mph74%30.12 "Hg10 mi
8:45 PM79 °FSunny.No wind74%30.12 "Hg10 mi
8:15 PM79 °FSunny.No wind74%30.12 "Hg10 mi
7:45 PM79 °FSunny.2 mph70%30.12 "Hg10 mi
7:15 PM82 °FSunny.2 mph66%30.12 "Hg10 mi
6:45 PM82 °FSunny.3 mph62%30.12 "Hg10 mi
6:15 PM82 °FSunny.5 mph62%30.12 "Hg10 mi
5:45 PM82 °FSunny.5 mph62%30.12 "Hg10 mi
5:15 PM82 °FSunny.5 mph66%30.12 "Hg10 mi
4:45 PM82 °FSunny.6 mph66%30.12 "Hg10 mi
4:15 PM82 °FSunny.6 mph66%30.12 "Hg10 mi
3:45 PM82 °FSunny.7 mph66%30.12 "Hg10 mi
1:45 PM82 °FSunny.6 mph70%30.15 "Hg10 mi
12:45 PM84 °FSunny.5 mph70%30.18 "Hg10 mi
11:45 AM82 °FSunny.3 mph74%30.18 "Hg10 mi
11:15 AM82 °FSunny.5 mph70%30.18 "Hg10 mi
10:45 AM82 °FSunny.3 mph62%30.18 "Hg10 mi
Weather by CustomWeather, © 2015

See weather overviewHow to use our weather pages